Location: Grambois
(43.7619°N, 5.5873°E)
Time: 03:01:47
(UTC+00:00)

Cosmos-2242 - Pass Details

Date: 07 June 2020
Orbit: 590 x 617 km, 82.5° (Epoch: 09 July)

Event Time Altitude Azimuth Distance (km) Brightness Sun altitude
Rises 00:27:28 0° 352° (N) 2,836 7.6 -22.4°
Reaches altitude 10° 00:29:40 10° 353° (N) 1,930 6.6 -22.4°
Maximum altitude 00:33:56 84° 80° (E) 601 2.9 -22.2°
Enters shadow 00:34:24 70° 155° (SSE) 633 2.8 -22.1°
